CW1490 Weather Reports


time (UTC)temp
C
wind
direction
speed
KPH
gust
KPH
rain 1hr
cm
rain 24hr
cm
rain mn
cm
humidity
%
barometer
mb
20260902102517 16 238 0.0 3.2 0.00 0.94 0.00 94 1022.1
20260902102019 16 265 0.0 3.2 0.00 0.94 0.00 94 1022.0
20260902101537 16 238 0.0 3.2 0.00 0.97 0.00 94 1022.0
20260902101016 16 9 0.0 3.2 0.00 0.97 0.00 94 1021.9
20260902100503 16 291 0.0 3.2 0.00 0.97 0.00 94 1021.8
20260902100007 16 9 0.0 3.2 0.00 0.97 0.00 94 1021.7
20260902095505 16 334 0.0 3.2 0.00 0.97 0.00 94 1021.8
20260902095004 16 51 0.0 1.6 0.00 0.97 0.00 94 1021.6
20260902094510 16 221 0.0 1.6 0.00 0.97 0.00 94 1021.7
20260902094007 16 9 0.0 4.8 0.00 0.97 0.00 94 1021.7
20260902093508 16 51 0.0 4.8 0.00 0.97 0.00 94 1021.7
20260902093024 16 9 1.6 3.2 0.00 0.97 0.00 94 1021.7
20260902092507 16 41 1.6 4.8 0.00 0.97 0.00 94 1021.7
20260902092011 16 9 1.6 4.8 0.00 0.97 0.00 94 1021.6
20260902091526 17 93 0.0 3.2 0.00 0.97 0.00 94 1021.6
20260902091012 16 265 0.0 1.6 0.00 0.97 0.00 94 1021.6
20260902090503 17 93 0.0 1.6 0.00 0.97 0.00 94 1021.4
20260902090005 17 265 0.0 1.6 0.00 0.97 0.00 94 1021.4
20260902085502 17 265 0.0 4.8 0.00 0.97 0.00 94 1021.4
20260902085004 17 265 0.0 4.8 0.00 0.97 0.00 94 1021.3
20260902084507 17 316 1.6 4.8 0.00 0.97 0.00 94 1021.2
20260902084004 17 338 1.6 4.8 0.00 0.97 0.00 94 1021.1
20260902083504 17 44 0.0 3.2 0.00 0.97 0.00 94 1021.2
20260902083010 17 51 0.0 3.2 0.00 0.97 0.00 94 1021.1
20260902082506 17 137 0.0 3.2 0.00 0.97 0.00 94 1021.2
20260902082009 17 51 0.0 3.2 0.00 0.97 0.00 94 1021.3
20260902081528 17 93 0.0 3.2 0.00 0.97 0.00 94 1021.2
20260902081017 17 216 0.0 3.2 0.00 0.97 0.00 94 1021.2
20260902080513 17 232 1.6 4.8 0.00 0.97 0.00 94 1021.2
20260902080027 17 232 1.6 4.8 0.00 0.97 0.00 94 1021.3
20260902075515 17 165 1.6 6.4 0.00 0.97 0.00 94 1021.3
20260902075002 17 178 1.6 6.4 0.00 0.97 0.00 94 1021.4
20260902074507 17 51 1.6 4.8 0.00 0.97 0.00 94 1021.4
20260902074003 17 221 1.6 3.2 0.00 0.97 0.00 94 1021.4
20260902073506 17 51 0.0 3.2 0.00 0.97 0.00 94 1021.3
20260902073010 17 93 1.6 3.2 0.00 0.97 0.00 94 1021.3
20260902072508 17 93 0.0 3.2 0.00 0.97 0.00 94 1021.4
20260902072005 17 265 0.0 3.2 0.00 0.97 0.00 94 1021.3
20260902071514 17 298 0.0 3.2 0.00 0.97 0.00 94 1021.3
20260902071009 17 265 0.0 3.2 0.00 0.97 0.00 94 1021.3
20260902070507 17 178 0.0 1.6 0.00 0.97 0.00 94 1021.4
20260902070009 17 178 0.0 3.2 0.00 0.97 0.00 94 1021.4
20260902065503 17 93 0.0 3.2 0.00 0.97 0.00 94 1021.5
20260902065014 17 67 0.0 3.2 0.00 0.97 0.00 94 1021.6
20260902064508 17 80 0.0 3.2 0.00 0.97 0.00 94 1021.6
20260902064002 17 51 0.0 3.2 0.00 0.97 0.00 94 1021.6
20260902063516 17 41 1.6 3.2 0.00 0.97 0.00 94 1021.5
20260902063008 17 51 0.0 3.2 0.00 0.97 0.00 94 1021.5
20260902062505 17 51 0.0 3.2 0.00 0.97 0.00 94 1021.5
20260902062006 17 265 0.0 3.2 0.00 0.97 0.00 94 1021.4
20260902061527 17 205 0.0 1.6 0.00 0.97 0.00 94 1021.4
20260902061010 17 9 0.0 1.6 0.00 0.97 0.00 94 1021.4
20260902060508 17 221 0.0 3.2 0.00 0.97 0.00 94 1021.4
20260902060018 17 238 0.0 3.2 0.00 0.97 0.00 94 1021.4
20260902055513 17 41 0.0 3.2 0.00 0.97 0.00 94 1021.3
20260902055013 17 44 1.6 3.2 0.00 0.97 0.00 94 1021.2
20260902054504 17 80 0.0 3.2 0.00 0.97 0.00 94 1021.2
20260902054003 17 93 0.0 3.2 0.00 0.97 0.00 94 1021.2
20260902053502 17 9 0.0 3.2 0.00 0.97 0.00 94 1021.1
20260902053005 17 93 0.0 3.2 0.00 0.97 0.00 94 1021.1
20260902052517 17 291 0.0 4.8 0.00 0.97 0.00 94 1021.1
20260902052003 17 238 1.6 6.4 0.00 0.97 0.00 94 1021.0
20260902051509 17 265 1.6 6.4 0.00 0.97 0.00 94 1021.0
20260902051007 17 209 3.2 4.8 0.00 0.97 0.00 94 1020.9
20260902050507 17 214 1.6 3.2 0.00 0.97 0.00 94 1020.7
20260902050016 17 221 1.6 3.2 0.00 0.97 0.00 94 1020.7
20260902045508 17 205 0.0 3.2 0.00 0.97 0.00 94 1020.7
20260902045011 17 212 1.6 3.2 0.00 0.97 0.00 94 1020.7
20260902044527 17 178 1.6 3.2 0.00 0.97 0.00 94 1020.6
20260902044013 17 212 0.0 3.2 0.00 0.97 0.00 94 1020.7
20260902043511 17 215 1.6 3.2 0.00 0.97 0.00 94 1020.6
20260902043042 17 165 0.0 3.2 0.00 0.97 0.00 94 1020.4
20260902042505 17 9 0.0 3.2 0.00 0.97 0.00 94 1020.5
20260902042002 17 9 0.0 4.8 0.00 0.97 0.00 94 1020.5
20260902041508 17 334 0.0 4.8 0.00 0.97 0.00 94 1020.5
20260902041003 17 9 1.6 4.8 0.00 0.97 0.00 93 1020.3
20260902040509 17 9 1.6 4.8 0.00 0.97 0.00 93 1020.2
20260902040014 17 9 1.6 3.2 0.00 0.97 0.00 93 1020.1
20260902035513 17 9 0.0 3.2 0.00 0.97 0.97 93 1020.0
20260902035008 17 9 1.6 3.2 0.00 0.97 0.97 93 1020.0
20260902034520 17 9 1.6 3.2 0.00 0.97 0.97 93 1019.9
20260902034012 17 9 0.0 4.8 0.00 0.97 0.97 93 1020.0
20260902033511 17 9 1.6 4.8 0.00 0.97 0.97 93 1020.0
20260902033027 17 41 1.6 4.8 0.00 0.97 0.97 93 1019.9
20260902032516 17 19 3.2 4.8 0.00 0.97 0.97 93 1019.9
20260902032021 17 265 0.0 3.2 0.00 0.97 0.97 93 1019.8
20260902031537 17 67 0.0 3.2 0.00 0.97 0.97 93 1019.9
20260902031006 17 34 1.6 4.8 0.00 0.97 0.97 93 1019.9
20260902030502 17 9 0.0 4.8 0.00 0.97 0.97 93 1020.0
20260902030008 17 265 0.0 4.8 0.00 0.97 0.97 93 1019.9
20260902025506 17 119 1.6 6.4 0.00 0.97 0.97 93 1019.9
20260902025010 17 247 3.2 6.4 0.00 0.97 0.97 93 1019.9
20260902024515 17 238 3.2 6.4 0.00 0.97 0.97 93 1019.9
20260902024007 17 221 0.0 4.8 0.00 0.97 0.97 93 1019.8
20260902023509 17 257 1.6 8.0 0.00 0.97 0.97 93 1019.9
20260902023032 17 325 1.6 11.3 0.00 0.97 0.97 93 1019.9
20260902022510 17 238 3.2 11.3 0.00 0.97 0.97 93 1019.8
20260902022015 17 212 6.4 11.3 0.00 0.97 0.97 93 1019.7
20260902021527 17 234 3.2 6.4 0.00 0.97 0.97 93 1019.9
20260902021013 17 153 0.0 4.8 0.00 0.97 0.97 93 1020.0
20260902020514 17 250 3.2 4.8 0.00 0.97 0.97 93 1020.0
20260902020032 17 250 1.6 4.8 0.00 0.97 0.97 93 1019.9
20260902015516 17 325 1.6 4.8 0.00 0.97 0.97 93 1020.0
20260902015006 17 309 0.0 3.2 0.00 0.97 0.97 93 1019.9
20260902014518 17 51 1.6 4.8 0.00 0.97 0.97 93 1019.8
20260902014008 17 178 0.0 4.8 0.00 0.97 0.97 93 1019.8
20260902013507 17 9 1.6 4.8 0.00 0.97 0.97 93 1019.9
20260902013020 17 51 1.6 4.8 0.00 0.97 0.97 93 1019.8
20260902012513 17 22 0.0 4.8 0.00 0.97 0.97 93 1019.8
20260902012013 17 34 0.0 4.8 0.00 0.97 0.97 93 1019.9
20260902011524 17 319 3.2 4.8 0.00 0.97 0.97 93 1019.8
20260902011013 17 51 0.0 6.4 0.00 0.97 0.97 93 1019.8
20260902010514 17 178 0.0 6.4 0.00 0.97 0.97 93 1019.7
20260902010028 17 298 0.0 4.8 0.00 0.97 0.97 93 1019.7
20260902005519 17 291 0.0 3.2 0.03 0.97 0.97 93 1019.7
20260902005016 17 9 0.0 6.4 0.03 0.97 0.97 93 1019.5
20260902004535 17 282 1.6 6.4 0.03 0.97 0.97 93 1019.4
20260902004018 17 319 1.6 4.8 0.03 0.97 0.97 93 1019.3
20260902003507 18 325 1.6 6.4 0.03 0.97 0.97 93 1019.2
20260902003013 18 178 0.0 6.4 0.03 0.97 0.97 93 1019.2
20260902002511 18 146 1.6 6.4 0.03 0.97 0.97 93 1019.1
20260902002009 18 309 1.6 6.4 0.03 0.97 0.97 93 1019.0
20260902001521 18 190 1.6 6.4 0.03 0.97 0.97 93 1018.9
20260902001013 18 158 3.2 6.4 0.03 0.97 0.97 93 1018.8
20260902000511 18 221 1.6 6.4 0.05 0.97 0.97 93 1018.6
20260902000031 18 221 1.6 6.4 0.05 0.97 0.97 93 1018.8
20260901235512 18 247 3.2 6.4 0.03 0.94 0.94 93 1018.7
20260901235019 18 229 0.0 4.8 0.03 0.94 0.94 93 1018.5
20260901234531 18 291 0.0 8.0 0.03 0.94 0.94 93 1018.5
20260901234015 18 238 1.6 8.0 0.03 0.94 0.94 93 1018.4
20260901233519 18 146 3.2 8.0 0.03 0.94 0.94 93 1018.3
20260901233031 18 249 3.2 4.8 0.03 0.94 0.94 93 1018.5
20260901232517 18 247 3.2 8.0 0.03 0.94 0.94 93 1018.5
20260901232017 18 217 4.8 8.0 0.03 0.94 0.94 93 1018.5
20260901231519 18 232 3.2 11.3 0.03 0.94 0.94 93 1018.5
20260901231012 18 234 6.4 12.9 0.03 0.94 0.94 93 1018.5
20260901230510 18 247 6.4 12.9 0.00 0.91 0.91 93 1018.5
20260901230024 18 247 1.6 4.8 0.00 0.91 0.91 93 1018.4
20260901225512 18 26 0.0 4.8 0.00 0.91 0.91 93 1018.4
20260901225014 18 51 0.0 4.8 0.00 0.91 0.91 93 1018.4
20260901224530 18 9 0.0 4.8 0.00 0.91 0.91 93 1018.5
20260901224016 18 9 0.0 6.4 0.00 0.91 0.91 93 1018.5
20260901223513 18 38 1.6 6.4 0.00 0.91 0.91 93 1018.4
20260901223030 18 9 1.6 4.8 0.00 0.91 0.91 93 1018.5
20260901222517 18 34 1.6 6.4 0.00 0.91 0.91 93 1018.5
20260901222016 18 9 1.6 8.0 0.00 0.91 0.91 93 1018.5
20260901221601 18 17 4.8 6.4 0.00 0.91 0.91 93 1018.4
20260901221001 18 18 4.8 6.4 0.00 0.91 0.91 93 1018.3
20260901220502 18 24 3.2 6.4 0.00 0.91 0.91 93 1018.3
20260901220004 18 51 0.0 6.4 0.00 0.91 0.91 93 1018.2
20260901215502 18 93 0.0 11.3 0.00 0.91 0.91 93 1018.2
20260901215005 18 80 3.2 11.3 0.00 0.91 0.91 93 1018.2
20260901214503 18 22 1.6 8.0 0.00 0.91 0.91 93 1018.2
20260901214002 18 30 3.2 14.5 0.00 0.91 0.91 93 1018.2
20260901213503 18 34 4.8 14.5 0.00 0.91 0.91 93 1018.1
20260901213019 18 9 4.8 8.0 0.00 0.91 0.91 93 1018.1
20260901212511 19 26 3.2 8.0 0.00 0.91 0.91 93 1018.1
20260901212006 19 319 1.6 8.0 0.00 0.91 0.91 93 1018.1
20260901211516 19 26 3.2 8.0 0.00 0.91 0.91 93 1018.1
20260901211007 19 316 1.6 12.9 0.00 0.91 0.91 93 1018.1
20260901210507 19 32 3.2 12.9 0.00 0.91 0.91 93 1018.0
20260901210019 19 48 4.8 9.7 0.00 0.91 0.91 93 1017.9
20260901205502 19 19 1.6 8.0 0.00 0.91 0.91 93 1018.1
20260901205001 18 26 3.2 9.7 0.00 0.91 0.91 93 1018.0
20260901204512 18 67 3.2 9.7 0.00 0.91 0.91 93 1017.9
20260901204004 18 47 6.4 12.9 0.00 0.91 0.91 93 1017.9
20260901203503 18 47 6.4 12.9 0.00 0.91 0.91 93 1017.9
20260901203008 18 9 6.4 11.3 0.00 0.91 0.91 93 1017.9
20260901202502 18 31 6.4 12.9 0.00 0.91 0.91 93 1017.8
20260901202004 18 43 6.4 16.1 0.00 0.91 0.91 93 1017.8
20260901201510 18 18 6.4 16.1 0.00 0.91 0.91 93 1017.8
20260901201007 18 21 8.0 19.3 0.00 0.91 0.91 93 1017.8
20260901200509 18 19 8.0 19.3 0.00 0.91 0.91 93 1017.7
20260901200029 18 338 6.4 16.1 0.00 0.91 0.91 94 1017.7
20260901195507 18 342 6.4 16.1 0.00 0.91 0.91 94 1017.7
20260901195007 18 45 6.4 14.5 0.00 0.91 0.91 94 1017.7
20260901194525 18 36 6.4 14.5 0.00 0.91 0.91 94 1017.8
20260901194006 18 38 3.2 16.1 0.00 0.91 0.91 94 1017.7
20260901193503 18 346 6.4 19.3 0.00 0.91 0.91 94 1017.8
20260901193004 18 19 9.7 19.3 0.00 0.91 0.91 95 1017.7
20260901192503 18 18 8.0 17.7 0.00 0.91 0.91 95 1017.7
20260901192003 18 44 6.4 14.5 0.00 0.91 0.91 94 1017.8
20260901191518 18 63 8.0 17.7 0.00 0.91 0.91 94 1017.8
20260901191002 18 20 8.0 17.7 0.00 0.91 0.91 95 1017.8
20260901190513 18 17 11.3 20.9 0.00 0.91 0.91 94 1017.8
20260901190020 18 51 8.0 20.9 0.03 0.91 0.91 95 1017.8
20260901185508 18 45 11.3 20.9 0.03 0.91 0.91 95 1017.8
20260901185008 18 44 9.7 19.3 0.03 0.91 0.91 95 1017.8
20260901184518 18 9 9.7 19.3 0.03 0.91 0.91 95 1017.8
20260901184010 18 38 11.3 17.7 0.05 0.91 0.91 95 1017.8
20260901183510 18 32 8.0 17.7 0.05 0.91 0.91 95 1017.9
20260901183033 18 33 4.8 14.5 0.05 0.91 0.91 95 1017.9
20260901182512 18 346 8.0 14.5 0.05 0.91 0.91 95 1017.9
20260901182003 18 9 6.4 14.5 0.05 0.91 0.91 95 1017.9
20260901181505 18 64 3.2 14.5 0.08 0.91 0.91 95 1017.9
20260901181002 18 347 8.0 14.5 0.08 0.91 0.91 95 1017.9
20260901180502 18 43 6.4 16.1 0.08 0.91 0.91 95 1017.9
20260901180010 18 19 4.8 16.1 0.05 0.89 0.89 95 1017.8
20260901175513 18 34 9.7 16.1 0.05 0.89 0.89 95 1017.8
20260901175006 18 48 8.0 16.1 0.05 0.89 0.89 95 1017.8
20260901174529 17 51 8.0 16.1 0.05 0.89 0.89 95 1017.7
20260901174008 17 26 9.7 24.1 0.03 0.86 0.86 95 1017.7
20260901173509 17 34 8.0 24.1 0.05 0.86 0.86 95 1017.7
20260901173022 17 93 4.8 16.1 0.05 0.86 0.86 95 1017.7
20260901172516 17 25 8.0 17.7 0.05 0.86 0.86 94 1017.7
20260901172013 17 38 9.7 17.7 0.05 0.86 0.86 95 1017.6
20260901171527 17 63 11.3 17.7 0.03 0.84 0.84 94 1017.6
20260901171015 17 38 8.0 16.1 0.05 0.84 0.84 94 1017.6
20260901170504 17 36 6.4 9.7 0.08 0.84 0.84 95 1017.6
20260901170008 17 49 4.8 8.0 0.10 0.84 0.84 94 1017.6
20260901165503 17 51 4.8 6.4 0.13 0.84 0.84 94 1017.7
20260901165007 17 9 0.0 8.0 0.13 0.84 0.84 94 1017.6
20260901164514 17 282 1.6 9.7 0.13 0.84 0.84 94 1017.6
20260901164007 17 298 3.2 17.7 0.15 0.84 0.84 94 1017.6
20260901163509 17 338 3.2 19.3 0.15 0.81 0.81 94 1017.5
20260901163020 17 9 11.3 19.3 0.20 0.81 0.81 94 1017.4
20260901162510 17 33 8.0 25.7 0.25 0.81 0.81 94 1017.2
20260901162011 17 40 16.1 25.7 0.25 0.81 0.81 94 1017.2
20260901161536 17 28 12.9 20.9 0.25 0.81 0.81 94 1016.9
20260901161016 17 84 12.9 20.9 0.23 0.79 0.79 94 1016.8
20260901160512 17 54 9.7 16.1 0.20 0.76 0.76 94 1017.0
20260901160029 17 43 4.8 12.9 0.18 0.74 0.74 94 1017.4
20260901155516 17 22 6.4 14.5 0.15 0.71 0.71 94 1017.7
20260901155017 17 36 4.8 16.1 0.15 0.71 0.71 94 1017.8
20260901154511 17 29 8.0 16.1 0.15 0.71 0.71 94 1017.8
20260901154006 17 36 8.0 16.1 0.13 0.69 0.69 94 1017.8
20260901153509 17 9 8.0 19.3 0.10 0.66 0.66 93 1017.7
20260901153054 17 22 9.7 19.3 0.05 0.61 0.61 93 1017.7
20260901152517 17 25 9.7 19.3 0.00 0.56 0.56 93 1017.7
20260901152009 17 20 8.0 19.3 0.00 0.56 0.56 93 1017.7
20260901151538 17 21 9.7 19.3 0.00 0.56 0.56 93 1017.7
20260901151011 17 18 9.7 20.9 0.00 0.56 0.56 93 1017.6
20260901150512 17 43 12.9 20.9 0.00 0.56 0.56 93 1017.6
20260901150036 17 34 9.7 20.9 0.00 0.56 0.56 93 1017.6
20260901145512 17 44 12.9 20.9 0.00 0.56 0.56 93 1017.4
20260901145017 18 67 14.5 22.5 0.00 0.56 0.56 93 1017.3
20260901144540 18 24 12.9 22.5 0.00 0.56 0.56 94 1017.3
20260901144014 18 50 11.3 19.3 0.00 0.56 0.56 94 1017.2
20260901143516 18 41 3.2 17.7 0.00 0.56 0.56 94 1017.3
20260901143011 18 25 8.0 17.7 0.00 0.56 0.56 94 1017.2
20260901142506 18 18 8.0 17.7 0.00 0.56 0.56 94 1017.3
20260901142006 18 328 9.7 17.7 0.00 0.56 0.56 94 1017.3
20260901141530 18 24 9.7 17.7 0.00 0.56 0.56 94 1017.3
20260901141010 18 26 9.7 17.7 0.00 0.56 0.56 94 1017.6
20260901140520 18 40 8.0 17.7 0.00 0.56 0.56 94 1017.7
20260901140029 18 43 9.7 14.5 0.00 0.56 0.56 94 1017.8
20260901135511 18 36 6.4 14.5 0.00 0.56 0.56 95 1017.8
20260901135015 17 19 8.0 14.5 0.00 0.56 0.56 94 1017.9
20260901134529 18 33 6.4 9.7 0.00 0.56 0.56 95 1017.9
20260901134014 17 337 6.4 11.3 0.00 0.56 0.56 94 1017.8
20260901133516 17 61 4.8 11.3 0.00 0.56 0.56 94 1017.8
20260901133032 17 298 3.2 11.3 0.00 0.56 0.56 94 1017.9
20260901132515 17 9 1.6 12.9 0.00 0.56 0.56 94 1017.9
20260901132022 17 24 4.8 12.9 0.00 0.56 0.56 94 1018.0
20260901131627 17 19 4.8 12.9 0.00 0.56 0.56 94 1018.0
20260901131009 17 26 6.4 12.9 0.00 0.56 0.56 94 1017.9
20260901130511 17 46 8.0 12.9 0.03 0.56 0.56 94 1018.0
20260901130023 17 327 6.4 14.5 0.03 0.56 0.56 94 1018.0
20260901125514 17 13 6.4 14.5 0.03 0.56 0.56 94 1018.0
20260901125012 17 36 6.4 12.9 0.03 0.56 0.56 94 1017.9
20260901124527 17 39 6.4 12.9 0.05 0.56 0.56 94 1018.1
20260901124014 17 47 4.8 16.1 0.05 0.56 0.56 94 1018.3
20260901123512 17 41 6.4 16.1 0.08 0.56 0.56 94 1018.3
20260901123031 17 23 8.0 16.1 0.10 0.56 0.56 94 1018.2
20260901122514 17 11 8.0 16.1 0.13 0.56 0.56 94 1018.2
20260901122015 17 26 6.4 19.3 0.18 0.56 0.56 94 1018.2
20260901121533 17 342 9.7 19.3 0.23 0.56 0.56 94 1018.1
20260901121016 17 15 8.0 19.3 0.25 0.56 0.56 94 1018.1
20260901120518 17 46 12.9 19.3 0.28 0.53 0.53 94 1018.1
20260901120021 17 25 8.0 12.9 0.33 0.53 0.53 94 1018.1
20260901115516 17 9 4.8 11.3 0.36 0.53 0.53 94 1018.2
20260901115011 17 28 3.2 11.3 0.38 0.53 0.53 94 1018.3
20260901114530 17 9 4.8 12.9 0.41 0.51 0.51 94 1018.2
20260901114014 17 28 4.8 17.7 0.43 0.51 0.51 94 1018.3
20260901113503 17 347 4.8 17.7 0.43 0.48 0.48 93 1018.4
20260901113005 17 319 4.8 16.1 0.43 0.46 0.46 93 1018.4
20260901112502 17 341 6.4 19.3 0.41 0.43 0.43 93 1018.4
20260901112004 18 19 8.0 19.3 0.36 0.38 0.38 93 1018.3
20260901111516 18 19 9.7 19.3 0.33 0.33 0.33 93 1018.0
20260901111005 18 337 11.3 19.3 0.30 0.30 0.30 94 1018.1
20260901110512 18 45 4.8 11.3 0.25 0.25 0.25 94 1018.1
20260901110014 18 36 4.8 8.0 0.20 0.20 0.20 94 1018.0
20260901105516 18 39 4.8 8.0 0.18 0.18 0.18 93 1017.9
20260901105011 18 55 3.2 6.4 0.15 0.15 0.15 93 1017.9
20260901104522 18 41 1.6 6.4 0.10 0.10 0.10 93 1017.9
20260901104012 18 19 3.2 4.8 0.08 0.08 0.08 93 1017.8
20260901103518 18 22 1.6 4.8 0.05 0.05 0.05 93 1017.7
20260901103028 18 17 3.2 4.8 0.03 0.03 0.03 93 1017.5